Location: Mount Graham
(32.7016°N, 109.8912°W)
Time: 09:36:03
(UTC-07:00)

Daily predictions for brighter satellites

Satellite Brightness Start Highest point End
(mag) Time Altitude Azimuth Time Altitude Azimuth Time Altitude Azimuth
deb Centaur AC-2 4.4 19:18:55 10° W 19:23:07 51° S 19:27:25 10° ESE
Cosmos 1980 3.7 19:19:37 10° S 19:25:12 63° ESE 19:30:49 10° NNE
Cosmos 1666 Rocket 3.7 19:20:58 10° N 19:25:21 54° E 19:29:40 10° SSE
Cosmos 1455 2.3 19:23:39 10° S 19:27:22 52° E 19:31:08 10° NNE
Sich 1 3.0 19:23:26 10° N 19:27:41 64° E 19:31:55 10° SSE
SJ-6B 3.1 19:25:21 10° SSE 19:29:14 48° ENE 19:33:03 10° N
SPOT 3 Rocket 4.2 19:25:05 10° S 19:30:11 61° W 19:35:18 10° NNW
Thor Agena Rocket 3.8 19:25:38 10° NNE 19:30:44 49° E 19:35:50 10° S
Meteor 2-3 Rocket 4.1 19:28:25 10° N 19:33:48 45° E 19:39:13 10° SSE
Meteor 2-21 Rocket 4.4 19:28:32 10° S 19:34:38 77° E 19:40:49 10° N
Cosmos 962 Rocket 4.5 19:29:54 10° S 19:35:55 64° E 19:42:00 10° NNE
Cosmos 1844 Rocket 2.9 19:30:29 10° NNW 19:36:09 75° WSW 19:41:45 10° SSE
Aureole 2 4.4 19:34:14 10° SSW 19:37:17 69° WNW 19:40:12 10° NNE
SL-24 R/B - RUBIN 2 4.3 19:38:20 10° NW 19:42:33 52° WSW 19:46:53 10° SSE
Cosmos 1892 2.6 19:38:59 10° N 19:42:52 83° E 19:46:42 10° S
Cosmos 2333 Rocket 3.2 19:37:35 10° SW 19:43:06 53° WNW 19:48:37 10° N
ATLAS CENTAUR R/B 3.8 19:40:18 10° WSW 19:43:17 23° NW 19:46:21 10° N
Cosmos 2341 Rocket 4.0 19:37:59 10° S 19:44:17 74° E 19:50:36 10° N
CZ-2D R/B 3.1 19:40:54 10° SSE 19:44:40 78° E 19:48:29 10° N
Cosmos 2219 Rocket 3.6 19:39:45 10° SW 19:45:05 42° WNW 19:50:26 10° N
Cosmos 1939 Rocket 3.5 19:44:30 12° SE 19:47:40 35° ENE 19:51:14 10° N
USA 186 1.8 19:47:55 22° ESE 19:48:41 29° ENE 19:50:44 10° NNE
Genesis I 3.3 19:46:57 10° NNW 19:51:01 67° ENE 19:54:11 16° SE
Cosmos 2237 Rocket 2.3 19:46:04 10° SSW 19:51:41 82° WNW 19:57:19 10° NNE
Cosmos 1844 4.0 19:47:19 10° NNW 19:53:01 71° WSW 19:58:44 10° S
Cosmos 1633 Rocket 3.1 19:50:12 10° N 19:54:34 82° W 19:58:55 10° S
SL-8 Rocket 4.0 19:52:24 10° S 19:58:34 61° E 20:04:44 10° NNE
Cosmos 1515 Rocket 3.5 19:59:13 10° S 20:03:40 87° ESE 20:08:09 10° N
OAO 2 Rocket 4.0 19:59:40 10° W 20:04:41 47° SSW 20:07:53 21° SE
Cosmos 2278 Rocket 2.3 20:01:18 10° NNW 20:06:55 61° ENE 20:10:53 20° SE
Cosmos 405 Rocket 4.3 20:10:36 18° ENE 20:10:36 18° ENE 20:12:34 10° NE
ASTRO E2 2.6 20:06:02 10° WSW 20:10:01 68° S 20:11:55 29° E
OAO 3 Copernicus 4.3 20:07:51 10° W 20:12:54 79° N 20:16:33 19° ENE
Cosmos 1825 2.4 20:09:40 10° N 20:13:21 48° E 20:14:41 32° SE
Cosmos 1371 Rocket 4.1 20:08:36 10° SSW 20:13:54 86° WNW 20:19:17 10° NNE
Hubble Space Telescope 2.4 20:12:00 10° SSW 20:14:24 18° SSE 20:14:24 18° SSE
Envisat 3.9 20:12:42 10° S 20:17:35 49° W 20:22:30 10° NNW
H-2A R/B 3.5 20:23:56 18° ENE 20:24:06 18° ENE 20:27:24 10° NNE
OAO 3 Rocket 3.7 20:19:51 10° SW 20:24:10 35° SSE 20:24:33 34° SE
Cosmos 2228 Rocket 3.9 20:20:26 10° SSW 20:24:41 50° W 20:28:58 10° N
Cosmos 864 Rocket 4.3 20:22:25 10° S 20:28:31 76° E 20:34:39 10° N
CZ-4C R/B 2.4 20:29:40 36° ESE 20:29:47 36° ESE 20:34:45 10° NE
Aurora 2 Rocket 4.4 20:24:34 10° SW 20:32:14 33° S 20:34:02 30° SE
Meteor 2-10 Rocket 3.6 20:26:44 10° S 20:32:25 77° E 20:38:15 10° N
ARGOS 3.9 20:33:06 30° E 20:33:51 31° ENE 20:38:31 10° N
Cosmos 2056 Rocket 3.9 20:29:37 10° SSW 20:35:00 70° WNW 20:40:24 10° NNE
Cosmos 1408 2.9 20:31:35 10° NNW 20:35:14 64° W 20:36:44 32° SSW
Cosmos 1452 Rocket 3.8 20:35:18 40° ESE 20:35:42 41° ESE 20:40:36 10° NNE
SL-16 R/B 2.3 20:38:36 10° SSW 20:44:14 75° WNW 20:49:54 10° NNE
Sakura Rocket 3.5 20:41:33 10° W 20:46:15 42° SSW 20:46:16 42° SSW
Resurs 01 Rocket 2.8 20:50:09 20° SSW 20:52:49 40° W 20:57:00 10° NNW
Cosmos 405 3.9 20:51:16 10° N 20:53:42 42° N 20:53:42 42° N
Cosmos 2098 Rocket 3.9 20:50:34 10° SSW 20:55:12 47° W 20:58:55 10° N
Cosmos 1190 Rocket 3.9 20:52:14 10° NNW 20:57:31 78° ENE 20:58:14 65° SE
Gblst 52 Del rocket 4.1 20:52:51 10° SW 20:58:35 81° NW 21:04:04 10° NE
Spot 2 Rocket 4.1 20:57:35 28° SSW 21:00:02 53° W 21:05:01 10° NNW
ATLAS 2AS CENTAUR R/B 3.8 20:54:32 10° NW 21:01:33 40° WSW 21:06:02 19° SSW
MetOp-A 4.0 21:10:49 73° E 21:10:55 74° ENE 21:16:16 10° N
Cosmos 1821 Rocket 4.0 21:10:59 58° E 21:11:03 58° E 21:17:13 10° NNE
Cosmos 1603 4.5 21:13:40 37° NE 21:13:40 37° NE 21:17:10 10° NNE
Cosmos 1441 Rocket 4.3 21:12:11 42° WNW 21:12:11 42° WNW 21:15:21 10° N
Cosmos 1727 Rocket 4.1 21:10:18 10° NNW 21:16:26 69° W 21:18:24 44° SSW
Terra 4.3 21:18:59 11° NE 21:18:59 11° NE 21:19:24 10° NNE
Cosmos 1707 Rocket 4.2 21:19:11 50° NNW 21:19:11 50° NNW 21:22:31 10° N
Cosmos 2297 3.6 21:17:24 10° NNW 21:23:05 78° WSW 21:23:18 76° SW
Cosmos 2369 Rocket 4.0 21:19:31 10° NNE 21:22:25 18° NE 21:22:25 18° NE
Cosmos 2344 3.8 21:20:42 10° SW 21:28:21 68° WNW 21:36:21 10° NNE
Cosmos 614 Rocket 4.4 21:23:09 10° NNW 21:27:21 56° N 21:27:21 56° N
ERS-1 Rocket 3.5 21:29:53 53° N 21:29:53 53° N 21:33:45 10° N
NOSS 3-4 (A) 3.8 21:25:20 10° NNW 21:32:35 80° WSW 21:33:44 66° S
NOSS 3-4 (C) 3.8 21:25:26 10° NNW 21:32:41 81° WSW 21:33:48 67° S
Cosmos 1420 Rocket 4.4 21:35:20 60° WNW 21:35:26 60° WNW 21:40:43 10° N
ATLAS 5 CENTAUR R/B 4.0 21:36:10 10° N 21:40:22 22° NE 21:40:22 22° NE
Lacrosse 5 4.0 21:51:29 10° N 21:53:59 19° NNE 21:53:59 19° NNE
H-2A R/B 3.4 22:04:34 34° WNW 22:04:34 34° WNW 22:07:52 10° NNW
CZ-4C R/B 4.1 22:14:15 11° WSW 22:18:19 25° NW 22:22:58 10° N
Cosmos 1943 Rocket 4.0 22:19:11 10° N 22:21:35 24° N 22:21:35 24° N
ATLAS 2A CENTAUR R/B 4.1 22:26:25 10° W 22:38:54 49° WSW 22:38:54 49° WSW
Cosmos 2369 Rocket 4.4 23:02:19 10° NNW 23:04:12 21° NW 23:04:12 21° NW
ATLAS 5 CENTAUR R/B 4.4 23:19:46 10° NW 23:21:55 23° NW 23:21:55 23° NW
